Regional Weather Roundup
Issued by NWS

Home | Current Version | Previous Version | Graphics & Text | Print | Product List | Glossary On
Versions: 1 2 3 4 5 6 7 8 9 10 11 12 13 14 15 16 17 18 19 20 21 22 23 24 25 26 27 28 29 30 31 32 33 34 35 36 37 38 39 40 41 42 43 44 45 46 47 48 49 50
000
ASUS43 KBIS 290410
RWRND

NORTH DAKOTA REGIONAL WEATHER ROUNDUP
NATIONAL WEATHER SERVICE BISMARCK ND
1100 PM CDT FRI AUG 28 2015

NOTE: "FAIR" INDICATES FEW OR NO CLOUDS BELOW 12,000 FEET WITH NO
SIGNIFICANT WEATHER AND/OR OBSTRUCTIONS TO VISIBILITY.


NDZ001>003-009>011-017-290500-
NORTHWEST NORTH DAKOTA

CITY           SKY/WX    TMP DP  RH WIND       PRES   REMARKS
WILLISTON      MOCLDY    68  47  46 S3        29.92R HAZE
MINOT          PTCLDY    68  61  78 SE6       29.88S
MINOT AFB      MOCLDY    67  64  93 CALM      29.87S
$$

NDZ018>021-031>035-040>046-290500-
SOUTHWEST NORTH DAKOTA

CITY           SKY/WX    TMP DP  RH WIND       PRES   REMARKS
BISMARCK       CLEAR     70  66  87 SE3       29.91S
DICKINSON      MOCLDY    65  50  58 W7        29.97R
GARRISON         N/A     67  30  25 N3        29.91R
HETTINGER ARPT CLOUDY    62  53  72 CALM      30.01R HAZE
$$

NDZ004>008-012>016-024-026-027-054-290500-
NORTHEAST NORTH DAKOTA

CITY           SKY/WX    TMP DP  RH WIND       PRES   REMARKS
GRAND FORKS    PTCLDY    69  67  93 S9        29.86S
GRND FRKS AFB  CLEAR     70  68  93 SW7       29.87S
DEVILS LAKE    CLEAR     66  59  77 SW3       29.88F
$$

NDZ022-023-025-028>030-036>039-047>053-290500-
SOUTHEAST NORTH DAKOTA

CITY           SKY/WX    TMP DP  RH WIND       PRES   REMARKS
FARGO          CLEAR     72  64  76 S17       29.92S
JAMESTOWN      CLEAR     70  66  87 S12       29.91S
$$




USA.gov is the U.S. government's official web portal to all federal, state and local government web resources and services.